Zurück zum Katalog

VELOX-P 2

AktivWissenschaftSSO
NORAD 39438·PAYLOAD·🇸🇬 Singapore

Gestartet Nov 21, 2013 von Dombarovsky

Loading…

Nächste Überflüge (nächste 24 Stunden)

TLE

AktuellSource: Space-Track

Epoche: Sep 14, 2026, 06:54 UTC

1 39438U 13066Y   26257.28771969  .00003060  00000-0  28829-3 0  9995
2 39438  97.8831 208.8142 0053775  48.7547 311.8287 14.93499578691131

Verfolge VELOX-P 2 in Echtzeit mit AllMySat

Download on the App Store